Bellingham, Washington, United States (98225)
Lat: 48.76N, Lon: 122.49W
Wx Zone: WAZ503
Local Info
Past Weather Observations for Saturday, September 24, 2016

NOTE: This archive is for the closest National Weather Service station to Bellingham. Information may differ from the station used for current weather conditions.

Click here for Long-term Archive

Time Weather Temperature Dewpoint Humidity Pressure Winds Precip Visibility
23:53
Overcast
55°F / 13°C 52°F / 11°C 88% 30.39 in
(1029 mb)
ENE 3.5 mph
(ENE 6 kph)
0.00 in
(0.00 mm)
10SM
22:53
Overcast
Light Rain
55°F / 13°C 54°F / 12°C 94% 30.39 in
(1029 mb)
Calm 0.01 in
(0.25 mm)
10SM
21:53
Overcast
55°F / 13°C 54°F / 12°C 94% 30.39 in
(1029 mb)
Calm 0.00 in
(0.00 mm)
8SM
20:53
Overcast
Light Rain
55°F / 13°C 54°F / 12°C 94% 30.39 in
(1029 mb)
NE 5.8 mph
(NE 9 kph)
0.01 in
(0.25 mm)
9SM
19:53
Overcast
Light Rain
57°F / 14°C 54°F / 12°C 88% 30.39 in
(1029 mb)
Calm 0.01 in
(0.25 mm)
9SM
18:53
Overcast
61°F / 16°C 52°F / 11°C 72% 30.33 in
(1027 mb)
Calm - 10SM
17:53
Overcast
61°F / 16°C 50°F / 10°C 68% 30.33 in
(1027 mb)
Calm - 10SM
16:53
Overcast
63°F / 17°C 48°F / 9°C 59% 30.33 in
(1027 mb)
Calm - 10SM
15:53
Overcast
64°F / 18°C 48°F / 9°C 56% 30.33 in
(1027 mb)
NW 4.6 mph
(NW 7 kph)
- 10SM
14:53
Partly Cloudy
64°F / 18°C 48°F / 9°C 56% 30.36 in
(1028 mb)
SSW 5.8 mph
(SSW 9 kph)
- 10SM
13:53
Partly Cloudy
63°F / 17°C 48°F / 9°C 59% 30.36 in
(1028 mb)
SE 4.6 mph
(SE 7 kph)
- 10SM
12:53
Overcast
61°F / 16°C 48°F / 9°C 63% 30.39 in
(1029 mb)
Variable 3.5 mph
(Variable 6 kph)
- 10SM
11:53
Clear
61°F / 16°C 50°F / 10°C 68% 30.39 in
(1029 mb)
Variable 4.6 mph
(Variable 7 kph)
- 10SM
10:53
Partly Cloudy
61°F / 16°C 50°F / 10°C 68% 30.39 in
(1029 mb)
Variable 5.8 mph
(Variable 9 kph)
- 10SM
09:53
Mostly Cloudy
57°F / 14°C 52°F / 11°C 82% 30.39 in
(1029 mb)
S 3.5 mph
(S 6 kph)
- 10SM
08:53
Mostly Cloudy
55°F / 13°C 54°F / 12°C 94% 30.36 in
(1028 mb)
SSE 5.8 mph
(SSE 9 kph)
- 10SM
08:25
Mostly Cloudy
54°F / 12°C 52°F / 11°C 94% 30.36 in
(1028 mb)
SSE 8.1 mph
(SSE 13 kph)
- 10SM
08:00
Overcast
54°F / 12°C 52°F / 11°C 94% 30.36 in
(1028 mb)
S 6.9 mph
(S 11 kph)
- 9SM
07:53
Overcast
54°F / 12°C 52°F / 11°C 94% 30.36 in
(1028 mb)
S 6.9 mph
(S 11 kph)
- 10SM
07:34
Overcast
54°F / 12°C 52°F / 11°C 94% 30.36 in
(1028 mb)
S 5.8 mph
(S 9 kph)
- 8SM
07:24
Overcast
54°F / 12°C 52°F / 11°C 94% 30.36 in
(1028 mb)
S 4.6 mph
(S 7 kph)
- 9SM
07:15
Overcast
54°F / 12°C 52°F / 11°C 94% 30.36 in
(1028 mb)
S 5.8 mph
(S 9 kph)
- 10SM
07:06
Overcast
54°F / 12°C 52°F / 11°C 94% 30.33 in
(1027 mb)
SSE 5.8 mph
(SSE 9 kph)
- 10SM
06:53
Overcast
52°F / 11°C 52°F / 11°C 100% 30.36 in
(1028 mb)
S 4.6 mph
(S 7 kph)
- 10SM
05:53
Overcast
Fog And Mist
52°F / 11°C 50°F / 10°C 94% 30.3 in
(1026 mb)
Calm - 6SM
05:16
Mostly Cloudy
Fog And Mist
52°F / 11°C 50°F / 10°C 94% 30.3 in
(1026 mb)
Calm - 3SM
05:05
Mostly Cloudy
Fog And Mist
50°F / 10°C 48°F / 9°C 94% 30.3 in
(1026 mb)
Calm - 1 3/4SM
04:53
Mostly Cloudy
Fog And Mist
50°F / 10°C 48°F / 9°C 94% 30.3 in
(1026 mb)
Calm - 3SM
04:45
Mostly Cloudy
Fog And Mist
50°F / 10°C 48°F / 9°C 94% 30.3 in
(1026 mb)
Calm - 1 3/4SM
04:40
Mostly Cloudy
Fog And Mist
52°F / 11°C 48°F / 9°C 88% 30.3 in
(1026 mb)
Calm - 3SM
04:26
Mostly Cloudy
Fog And Mist
50°F / 10°C 48°F / 9°C 94% 30.3 in
(1026 mb)
Calm - 1SM
04:14
Mostly Cloudy
Fog
50°F / 10°C 48°F / 9°C 94% 30.3 in
(1026 mb)
Calm - 1/2SM
04:02
Mostly Cloudy
Fog And Mist
50°F / 10°C 48°F / 9°C 94% 30.27 in
(1025 mb)
Calm - 1 3/4SM
03:53
Mostly Cloudy
Fog And Mist
52°F / 11°C 48°F / 9°C 88% 30.27 in
(1025 mb)
Calm - 6SM
03:49
Mostly Cloudy
Fog And Mist
52°F / 11°C 50°F / 10°C 94% 30.27 in
(1025 mb)
Calm - 3SM
03:38
Mostly Cloudy
Fog And Mist
50°F / 10°C 48°F / 9°C 94% 30.27 in
(1025 mb)
Calm - 1 1/4SM
03:31
Mostly Cloudy
Fog And Mist
52°F / 11°C 48°F / 9°C 88% 30.27 in
(1025 mb)
Calm - 3/4SM
03:21
Mostly Cloudy
Fog And Mist
52°F / 11°C 48°F / 9°C 88% 30.27 in
(1025 mb)
Calm - 1 3/4SM
02:53
Overcast
Fog And Mist
52°F / 11°C 50°F / 10°C 94% 30.27 in
(1025 mb)
Calm - 6SM
02:45
Mostly Cloudy
Fog And Mist
50°F / 10°C 48°F / 9°C 94% 30.27 in
(1025 mb)
Calm - 3SM
02:25
Mostly Cloudy
Fog And Mist
52°F / 11°C 48°F / 9°C 88% 30.27 in
(1025 mb)
Calm - 2SM
02:16
Partly Cloudy
Fog And Mist
52°F / 11°C 48°F / 9°C 88% 30.27 in
(1025 mb)
Calm - 1 1/4SM
02:07
Mostly Cloudy
Fog And Mist
50°F / 10°C 48°F / 9°C 94% 30.27 in
(1025 mb)
Calm - 3/4SM
02:05
Partly Cloudy
Fog
52°F / 11°C 48°F / 9°C 88% 30.27 in
(1025 mb)
Calm - 1/2SM
01:58
Mostly Cloudy
Fog And Mist
52°F / 11°C 48°F / 9°C 88% 30.24 in
(1024 mb)
Calm - 3/4SM
01:53
Mostly Cloudy
Fog And Mist
52°F / 11°C 50°F / 10°C 94% 30.24 in
(1024 mb)
Calm - 2SM
01:06
Mostly Cloudy
Fog And Mist
52°F / 11°C 52°F / 11°C 100% 30.24 in
(1024 mb)
Calm - 4SM
00:53
Partly Cloudy
Fog And Mist
54°F / 12°C 52°F / 11°C 94% 30.24 in
(1024 mb)
Calm - 4SM
Time Weather Temperature Dewpoint Humidity Pressure Winds Precip Visibility


Weather for websites

WeatherForYou.com, LLC is not responsible for any damages or problems caused by this service. Current weather conditions are obtained from the closest station including government and personal stations which may have varying degrees of accuracy. Weather forecasts are derived from the NOAA NDFD. Like all things, this site belongs to Jesus Christ... He just trusts us to maintain it. If you have any questions or comments email webmaster@weatherforyou.com

Copyright © 2016, WeatherForYou.com LLC. All rights reserved.